This is the latest recevied weather packets stored in our database for station/object SR9WXJ. If no packets are shown the sender has not sent any weather packets the latest 1 day(s).
| Time | Temp. | Humidity | Pressure | Rain* | Wind** | Luminosity | Snow |
|---|---|---|---|---|---|---|---|
| 1777989352 | 26.67° C | 100% | 789.9 hPa | - | 2.68 m/s, 176° | - | - |
| 1777989041 | 26.67° C | 100% | 789.9 hPa | - | 2.24 m/s, 164° | - | - |
| 1777988731 | 26.67° C | 100% | 789.9 hPa | - | 0.89 m/s, 159° | - | - |
| 1777988431 | 26.67° C | 100% | 789.9 hPa | - | 1.34 m/s, 182° | - | - |
| 1777988120 | 26.67° C | 100% | 789.9 hPa | - | 1.34 m/s, 159° | - | - |
| 1777987810 | 26.67° C | 100% | 789.9 hPa | - | 1.79 m/s, 210° | - | - |
| 1777987497 | 26.11° C | 100% | 789.9 hPa | - | 1.34 m/s, 188° | - | - |
| 1777986887 | 26.11° C | 100% | 789.9 hPa | - | 2.24 m/s, 181° | - | - |
| 1777986576 | 25.56° C | 100% | 789.9 hPa | - | 1.34 m/s, 157° | - | - |
| 1777986266 | 25° C | 100% | 789.9 hPa | - | 1.79 m/s, 154° | - | - |
| 1777985955 | 23.89° C | 100% | 789.9 hPa | - | 1.34 m/s, 183° | - | - |
| 1777985644 | 23.33° C | 100% | 789.9 hPa | - | 0.89 m/s, 139° | - | - |
| 1777985344 | 23.33° C | 100% | 789.9 hPa | - | 2.24 m/s, 151° | - | - |
| 1777985034 | 23.33° C | 100% | 789.9 hPa | - | 1.79 m/s, 139° | - | - |
| 1777984723 | 23.33° C | 100% | 789.9 hPa | - | 1.79 m/s, 171° | - | - |
| 1777984413 | 23.33° C | 100% | 789.9 hPa | - | 1.34 m/s, 118° | - | - |
| 1777984102 | 23.33° C | 100% | 789.9 hPa | - | 1.34 m/s, 183° | - | - |
| 1777983791 | 23.33° C | 100% | 789.9 hPa | - | 1.79 m/s, 183° | - | - |
| 1777983491 | 23.89° C | 100% | 789.9 hPa | - | 1.34 m/s, 180° | - | - |
| 1777983181 | 23.89° C | 100% | 789.9 hPa | - | 1.79 m/s, 148° | - | - |
| 1777982870 | 23.89° C | 100% | 789.9 hPa | - | 0.89 m/s, 158° | - | - |
| 1777982248 | 23.33° C | 100% | 789.9 hPa | - | 1.34 m/s, 153° | - | - |
| 1777981638 | 23.33° C | 100% | 789.9 hPa | - | 2.24 m/s, 168° | - | - |
| 1777981328 | 23.33° C | 100% | 789.9 hPa | - | 1.79 m/s, 163° | - | - |
| 1777981017 | 23.89° C | 100% | 789.9 hPa | - | 1.34 m/s, 164° | - | - |
* Rain since midnight (hover to see other rain measurements)
** Current wind speed in m/s (hover to see current wind gust speed)